Weather History for San Carlos, CA

Change the Weather History Date:

Tuesday, November 12, 2013

  Actual Average Record
Temperature  
Mean Temperature 62 °F -  
Max Temperature 69 °F 64 °F 75 °F (1990)
Min Temperature 55 °F 44 °F 34 °F (1978)
Degree Days  
Heating Degree Days 3    
Growing Degree Days 12 (Base 50)    
Moisture  
Dew Point 49 °F    
Average Humidity 71    
Maximum Humidity 94    
Minimum Humidity 46    
Precipitation  
Precipitation 0.00 in - - ()
Sea Level Pressure  
Sea Level Pressure 30.23 in    
Wind  
Wind Speed 3 mph (NW)    
Max Wind Speed 7 mph    
Max Gust Speed -    
Visibility 10 miles    
Events      
Averages and records for this station are not official NWS values.
T = Trace of Precipitation, MM = Missing Value Source: NWS Daily Summary

Daily Weather History Graph

Daily Weather History Graph

Search for Another Location

Airport:

Trip Planner

Search our weather history database for the weather conditions in past years. The results will help you decide how hot, cold, wet, or windy it might be!

Date:

Astronomy

Nov. 12, 2013 Rise Set
Actual Time 6:45 AM PST 5:00 PM PST
Civil Twilight 6:18 AM PST 5:27 PM PST
Nautical Twilight 5:46 AM PST 5:59 PM PST
Astronomical Twilight 5:15 AM PST 6:30 PM PST
Moon 2:12 PM PST (11/12) 1:47 AM PST (11/12)
Length of Visible Light 11h 09m
Length of Day
10h 14m
Waxing Gibbous, 77% of the Moon is Illuminated
Nov 12
Waxing Gibbous
Nov 17
Full
Nov 25
Last Quarter
Dec 2
New
Dec 9
First Quarter

Hourly Weather History & Observations

Time (PST) Temp. Dew Point Humidity Pressure Visibility Wind Dir Wind Speed Gust Speed Precip Events Conditions
12:15 AM 57.2 °F 50.0 °F 77% 30.16 in 10.0 mi NE 4.6 mph - N/A   Clear
12:35 AM 57.2 °F 50.0 °F 77% 30.17 in 10.0 mi Calm Calm - N/A   Clear
12:55 AM 57.2 °F 50.0 °F 77% 30.18 in 10.0 mi WNW 3.5 mph - N/A   Clear
1:15 AM 57.2 °F 48.2 °F 72% 30.18 in 10.0 mi NNW 3.5 mph - N/A   Clear
1:35 AM 57.2 °F 48.2 °F 72% 30.20 in 10.0 mi NW 5.8 mph - N/A   Clear
1:55 AM 57.2 °F 48.2 °F 72% 30.20 in 10.0 mi NNW 5.8 mph - N/A   Clear
2:15 AM 57.2 °F 48.2 °F 72% 30.19 in 10.0 mi NNW 5.8 mph - N/A   Partly Cloudy
2:35 AM 57.2 °F 50.0 °F 77% 30.20 in 10.0 mi Calm Calm - N/A   Partly Cloudy
2:55 AM 57.2 °F 50.0 °F 77% 30.20 in 10.0 mi Calm Calm - N/A   Scattered Clouds
3:15 AM 57.2 °F 50.0 °F 77% 30.21 in 10.0 mi SSW 3.5 mph - N/A   Partly Cloudy
3:35 AM 57.2 °F 50.0 °F 77% 30.22 in 10.0 mi Calm Calm - N/A   Clear
3:55 AM 57.2 °F 48.2 °F 72% 30.22 in 10.0 mi WNW 3.5 mph - N/A   Partly Cloudy
4:15 AM 57.2 °F 48.2 °F 72% 30.23 in 10.0 mi Calm Calm - N/A   Partly Cloudy
4:35 AM 57.2 °F 48.2 °F 72% 30.23 in 10.0 mi Calm Calm - N/A   Clear
4:55 AM 57.2 °F 51.8 °F 82% 30.25 in 10.0 mi Calm Calm - N/A   Clear
5:15 AM 55.4 °F 51.8 °F 88% 30.25 in 10.0 mi Calm Calm - N/A   Clear
5:35 AM 55.4 °F 53.6 °F 94% 30.23 in 10.0 mi East 4.6 mph - N/A   Scattered Clouds
5:55 AM 57.2 °F 50.0 °F 77% 30.25 in 10.0 mi SSW 3.5 mph - N/A   Scattered Clouds
6:15 AM 57.2 °F 48.2 °F 72% 30.25 in 10.0 mi SSE 3.5 mph - N/A   Partly Cloudy
6:35 AM 55.4 °F 50.0 °F 82% 30.23 in 10.0 mi SE 3.5 mph - N/A   Mostly Cloudy
6:52 AM 57.2 °F 48.2 °F 72% 30.24 in 10.0 mi South 5.8 mph - N/A   Overcast
6:55 AM 57.2 °F 48.2 °F 72% 30.24 in 10.0 mi SSW 5.8 mph - N/A   Mostly Cloudy
7:47 AM 57.2 °F 48.2 °F 72% 30.25 in 10.0 mi SSE 4.6 mph - N/A   Overcast
8:47 AM 59.0 °F 51.8 °F 77% 30.26 in 10.0 mi Calm Calm - N/A   Mostly Cloudy
9:53 AM 62.6 °F 53.6 °F 72% 30.27 in 10.0 mi NNE 5.8 mph - N/A   Mostly Cloudy
10:47 AM 62.6 °F 53.6 °F 72% 30.27 in 10.0 mi NNE 6.9 mph - N/A   Mostly Cloudy
11:55 AM 62.6 °F 50.0 °F 63% 30.25 in 10.0 mi NNE 6.9 mph - N/A   Mostly Cloudy
12:51 PM 68.0 °F 46.4 °F 46% 30.24 in 10.0 mi NW 4.6 mph - N/A   Mostly Cloudy
1:47 PM 68.0 °F 48.2 °F 49% 30.22 in 10.0 mi NNW 6.9 mph - N/A   Scattered Clouds
2:49 PM 69.8 °F 48.2 °F 46% 30.22 in 10.0 mi North 5.8 mph - N/A   Scattered Clouds
3:47 PM 66.2 °F 46.4 °F 49% 30.22 in 10.0 mi NNW 5.8 mph - N/A   Partly Cloudy
4:49 PM 66.2 °F 48.2 °F 52% 30.21 in 10.0 mi NW 5.8 mph - N/A   Partly Cloudy
5:47 PM 64.4 °F 48.2 °F 56% 30.23 in 10.0 mi WNW 4.6 mph - N/A   Clear
6:47 PM 62.6 °F 48.2 °F 59% 30.24 in 10.0 mi Calm Calm - N/A   Clear
7:47 PM 59.0 °F 51.8 °F 77% 30.25 in 10.0 mi Calm Calm - N/A   Clear
8:47 PM 57.2 °F 46.4 °F 67% 30.26 in 10.0 mi SE 6.9 mph - N/A   Clear
9:15 PM 57.2 °F 44.6 °F 63% 30.26 in 10.0 mi Calm Calm - N/A   Clear
9:35 PM 55.4 °F 44.6 °F 67% 30.26 in 10.0 mi Calm Calm - N/A   Clear
9:55 PM 57.2 °F 46.4 °F 67% 30.27 in 10.0 mi Calm Calm - N/A   Clear
10:15 PM 55.4 °F 46.4 °F 72% 30.26 in 10.0 mi Calm Calm - N/A   Clear
10:35 PM 55.4 °F 46.4 °F 72% 30.27 in 10.0 mi Calm Calm - N/A   Clear
10:55 PM 55.4 °F 46.4 °F 72% 30.26 in 10.0 mi Calm Calm - N/A   Clear
11:15 PM 55.4 °F 48.2 °F 77% 30.26 in 10.0 mi Calm Calm - N/A   Clear
11:35 PM 55.4 °F 50.0 °F 82% 30.26 in 10.0 mi Calm Calm - N/A   Clear
11:55 PM 55.4 °F 46.4 °F 72% 30.27 in 10.0 mi Calm Calm - N/A   Clear